Location: Harbor View
(36.2448°N, 86.5797°W)
Time: 08:43:57
(UTC+00:00)

COSMO-SKYMED 1 - Pass Details

Date: 07 March 2021
Orbit: 621 x 623 km, 97.9° (Epoch: 13 April)

Event Time Altitude Azimuth Distance (km) Brightness Sun altitude
Rises 01:09:43 0° 347° (NNW) 2,909 6.3 -17.7°
Reaches altitude 10° 01:13:26 10° 314° (NW) 1,996 5.9 -18.4°
Maximum altitude 01:14:48 11° 295° (WNW) 1,904 6.1 -18.7°
Drops below altitude 10° 01:16:09 10° 277° (W) 1,991 6.4 -18.9°
Sets 01:19:51 0° 243° (WSW) 2,891 6.9 -19.7°
